Regional Weather Roundup
Issued by NWS State College, PA

Home | Current Version | Previous Version | Graphics & Text | Print | Product List | Glossary On
Versions: 1 2 3 4 5 6 7 8 9 10 11 12 13 14 15 16 17 18 19 20 21 22 23 24 25 26 27 28 29 30 31 32 33 34 35 36 37 38 39 40 41 42 43 44 45 46 47 48 49 50
000
ASUS41 KCTP 300210
RWRCTP

REGIONAL WEATHER ROUNDUP
NATIONAL WEATHER SERVICE STATE COLLEGE PA
1000 PM EDT MON JUN 29 2015

Note: "fair" indicates few or no clouds below 12,000 feet with no
significant weather and/or obstructions to visibility.

* = STATION THAT DOES NOT REPORT PRECIPITATION /E.G. RAIN...SNOW...ETC/
    THUNDER OR FOG.

PAZ002>004-007>009-013>016-020>023-029>032-300300-
WESTERN PENNSYLVANIA

CITY           SKY/WX    TMP DP  RH WIND       PRES   REMARKS
ERIE           MOCLDY    68  57  68 CALM      29.88S
MEADVILLE      CLOUDY    64  55  72 VRB3      29.90S
FRANKLIN*      CLOUDY    63  54  72 S6        29.93R
NEW CASTLE     MOCLDY    62  59  90 E5        29.89F
BEAVER COUNTY  NOT AVBL
BUTLER*        MOCLDY    63  57  82 E9        29.91F
PITTSBURGH INT LGT RAIN  63  59  87 E7        29.88F
PITTSBURGH     CLOUDY    62  56  80 NE7       29.87F
INDIANA*       CLOUDY    64  63  94 E5        29.96S
LATROBE        LGT RAIN  64  63  94 CALM      29.90S
WASHINGTON CO* NOT AVBL
$$

PAZ004>006-010>012-017>019-024>028-033>037-041-042-045-046-049>053-300300-
CENTRAL PENNSYLVANIA

CITY           SKY/WX    TMP DP  RH WIND       PRES   REMARKS
BRADFORD       CLOUDY    60  58  92 CALM      29.96S
DUBOIS         CLOUDY    63  56  78 CALM      29.95R
CLEARFIELD     CLOUDY    63  57  81 N5        29.96R
JOHNSTOWN      CLOUDY    65  52  62 E5        29.95S
ALTOONA        CLOUDY    69  54  58 S7        29.95R
STATE COLLEGE  NOT AVBL
WILLIAMSPORT   CLOUDY    66  61  84 CALM      29.93R
SELINSGROVE    CLOUDY    68  61  78 CALM      29.95R
FT INDIANTOWN  MOCLDY    66  61  82 N2        29.94R
CAPITAL CITY   PTCLDY    75  53  46 S7        29.93R
HARRISBURG     MOCLDY    75  56  51 SW8       29.93R
YORK           CLOUDY    68  60  75 CALM      29.95R
$$

PAZ038>040-043-044-047-048-054-055-060>062-067>071-300300-
EASTERN PENNSYLVANIA

CITY           SKY/WX    TMP DP  RH WIND       PRES   REMARKS
SCRANTON       CLOUDY    71  57  61 SW8       29.95R
MOUNT POCONO   MOCLDY    63  56  78 W3        29.99R
ALLENTOWN      PTCLDY    69  58  67 SW6       29.94R
QUAKERTOWN*    CLEAR     64  59  82 CALM      29.97R
READING        PTCLDY    70  58  65 CALM      29.94R
LANCASTER      PTCLDY    71  57  61 S5        29.95R
COATESVILLE    CLEAR     68  59  73 CALM      29.97R
POTTSTOWN      PTCLDY    67  60  78 CALM      29.97R
BLUE BELL      CLEAR     64  61  88 CALM      29.96R
DOYLESTOWN     CLEAR     68  56  65 CALM      29.96R
WILLOW GROVE   NOT AVBL
NORTH PHILA    CLEAR     75  54  47 CALM      29.97R
PHILADELPHIA   PTCLDY    75  59  57 S7        29.96R
$$


USA.gov is the U.S. government's official web portal to all federal, state and local government web resources and services.